Weather History for Alpena, MI

Change the Weather History Date:

Friday, January 10, 2014

  Actual Average Record
Temperature  
Mean Temperature 23 °F 19 °F  
Max Temperature 34 °F 27 °F 52 °F (1950)
Min Temperature 11 °F 12 °F -21 °F (1982)
Degree Days  
Heating Degree Days 42 46  
Month to date heating degree days 572 449  
Since 1 July heating degree days 3914 3510  
Moisture  
Dew Point 22 °F    
Average Humidity 87    
Maximum Humidity 100    
Minimum Humidity 73    
Precipitation  
Precipitation 0.27 in 0.06 in 0.63 in (1924)
Month to date precipitation 0.59 0.58  
Year to date precipitation 0.59 0.58  
Snow  
Snow T in 0.70 in 5.80 in (1929)
Month to date snowfall 4.0 6.9  
Since 1 July snowfall 31.0 34.2  
Snow Depth 10.00 in    
Sea Level Pressure  
Sea Level Pressure 30.00 in    
Wind  
Wind Speed 8 mph (SSE)    
Max Wind Speed 14 mph    
Max Gust Speed 18 mph    
Visibility 6 miles    
Events Rain    
T = Trace of Precipitation, MM = Missing Value Source: NWS Daily Summary

Daily Weather History Graph

Daily Weather History Graph

Search for Another Location

Airport:

Trip Planner

Search our weather history database for the weather conditions in past years. The results will help you decide how hot, cold, wet, or windy it might be!

Date:

Astronomy

Jan. 10, 2014 Rise Set
Actual Time 8:11 AM EST 5:12 PM EST
Civil Twilight 7:38 AM EST 5:45 PM EST
Nautical Twilight 7:01 AM EST 6:22 PM EST
Astronomical Twilight 6:26 AM EST 6:57 PM EST
Moon 1:19 PM EST (1/10) 3:13 AM EST (1/10)
Length of Visible Light 10h 07m
Length of Day
9h 01m
Waxing Gibbous, 75% of the Moon is Illuminated
Jan 10
Waxing Gibbous
Jan 15
Full
Jan 24
Last Quarter
Jan 30
New
Feb 6
First Quarter

Hourly Weather History & Observations

Time (EST) Temp. Windchill Dew Point Humidity Pressure Visibility Wind Dir Wind Speed Gust Speed Precip Events Conditions
12:54 AM 12.9 °F 3.8 °F 7.0 °F 77% 30.27 in 10.0 mi South 5.8 mph - N/A   Overcast
1:54 AM 14.0 °F 6.5 °F 8.1 °F 77% 30.24 in 10.0 mi South 4.6 mph - N/A   Overcast
2:54 AM 15.1 °F 6.4 °F 10.0 °F 80% 30.23 in 10.0 mi SSE 5.8 mph - N/A   Overcast
3:54 AM 16.0 °F 8.8 °F 12.0 °F 84% 30.20 in 10.0 mi South 4.6 mph - N/A   Overcast
4:17 AM 17.1 °F 7.6 °F 12.9 °F 84% 30.15 in 10.0 mi South 6.9 mph - N/A   Overcast
4:30 AM 17.1 °F 7.6 °F 12.9 °F 84% 30.14 in 9.0 mi South 6.9 mph - N/A   Overcast
4:54 AM 17.1 °F 10.0 °F 14.0 °F 88% 30.18 in 8.0 mi South 4.6 mph - N/A   Overcast
5:54 AM 18.0 °F 12.7 °F 15.1 °F 88% 30.17 in 8.0 mi South 3.5 mph - N/A   Overcast
6:54 AM 18.0 °F 9.8 °F 15.1 °F 88% 30.16 in 8.0 mi South 5.8 mph - N/A   Overcast
7:54 AM 19.0 °F 11.1 °F 16.0 °F 88% 30.15 in 7.0 mi South 5.8 mph - N/A   Overcast
8:54 AM 19.9 °F 10.1 °F 17.1 °F 89% 30.16 in 5.0 mi South 8.1 mph - N/A   Overcast
9:39 AM 19.9 °F 10.1 °F 18.0 °F 92% 30.11 in 5.0 mi South 8.1 mph - N/A   Overcast
9:54 AM 21.0 °F 12.4 °F 18.0 °F 88% 30.15 in 5.0 mi South 6.9 mph - N/A   Overcast
10:54 AM 21.9 °F 12.5 °F 19.9 °F 92% 30.14 in 4.0 mi South 8.1 mph - N/A   Overcast
11:54 AM 24.1 °F 15.2 °F 21.0 °F 88% 30.11 in 5.0 mi South 8.1 mph - N/A   Overcast
12:52 PM 26.6 °F 19.1 °F 21.2 °F 80% 30.02 in 5.0 mi South 6.9 mph - N/A   Overcast
12:54 PM 26.1 °F 17.6 °F 21.9 °F 84% 30.06 in 5.0 mi South 8.1 mph - N/A   Overcast
1:54 PM 28.9 °F 21.9 °F 24.1 °F 82% 30.02 in 6.0 mi South 6.9 mph - N/A   Haze
2:54 PM 30.0 °F 20.5 °F 25.0 °F 82% 29.99 in 7.0 mi South 11.5 mph - N/A   Overcast
3:12 PM 30.0 °F 19.5 °F 25.0 °F 82% 29.94 in 7.0 mi SSE 13.8 mph - N/A   Overcast
3:54 PM 30.0 °F 21.7 °F 25.0 °F 82% 29.98 in 8.0 mi South 9.2 mph - N/A   Overcast
4:54 PM 30.9 °F 21.7 °F 26.1 °F 82% 29.96 in 8.0 mi South 11.5 mph - N/A   Overcast
5:54 PM 30.9 °F 22.8 °F 28.0 °F 89% 29.93 in 8.0 mi SSE 9.2 mph - N/A   Overcast
6:54 PM 30.9 °F 23.5 °F 28.0 °F 89% 29.89 in 6.0 mi SE 8.1 mph - N/A   Overcast
7:54 PM 30.9 °F 22.2 °F 30.0 °F 96% 29.86 in 4.0 mi SE 10.4 mph - N/A   Overcast
8:05 PM 30.9 °F 23.5 °F 30.0 °F 96% 29.82 in 2.5 mi SE 8.1 mph - 0.01 in Rain Light Freezing Rain
8:24 PM 32.0 °F 24.8 °F 30.9 °F 96% 29.79 in 2.5 mi ESE 8.1 mph - 0.03 in Rain Light Freezing Rain
8:54 PM 32.0 °F 23.6 °F 30.9 °F 96% 29.80 in 2.5 mi SE 10.4 mph - 0.07 in Rain Light Freezing Rain
9:06 PM 32.0 °F 24.2 °F 32.0 °F 100% 29.76 in 3.0 mi SE 9.2 mph - 0.01 in Rain Light Freezing Rain
9:22 PM 32.0 °F 23.6 °F 32.0 °F 100% 29.75 in 3.0 mi SE 10.4 mph - 0.04 in   Overcast
9:29 PM 32.0 °F 24.2 °F 32.0 °F 100% 29.74 in 3.0 mi SE 9.2 mph - 0.05 in Rain Light Freezing Rain
9:36 PM 32.0 °F 24.2 °F 32.0 °F 100% 29.73 in 2.5 mi SE 9.2 mph - 0.06 in Rain Light Freezing Rain
9:54 PM 32.0 °F 24.8 °F 32.0 °F 100% 29.75 in 3.0 mi SE 8.1 mph - 0.10 in   Overcast
10:54 PM 33.1 °F 26.1 °F 32.0 °F 96% 29.68 in 4.0 mi SE 8.1 mph - 0.04 in Rain Light Rain
11:54 PM 34.0 °F 25.5 °F 33.1 °F 96% 29.63 in 5.0 mi SSE 11.5 mph - 0.06 in Rain Light Rain